Showing default

FLOCK 4BE 8, 60515

Orbit data source: Space-Track

FLOCK 4BE 8, 60515 is a payload satellite owned by Planet (US) in SSO that was launched on Fri, 16 Aug 2024 UTC via an FALCON 9 launch vehicle from the Air Force Western Test Range (AFWTR). Payload-class satellites include a variety of spacecraft equipped with specific instruments for various scientific and technological missions. These include communications satellites like Starlink; space stations such as the ISS; scientific satellites like the Hubble; Earth observation satellites from companies like Planet Labs, Umbra, and HawkEye 360; GPS; miniature CubeSats for education and research; and military/defense satellites.

Loading next visibility...
Identifier
60515, 2024-149AZ
Orbit
SSO
Country
Flag of USUS
Related business
Manufacturer
Planet
Mission
Non-operational Commercial Imaging
Bus & Motor
CUBESAT 3U, Unknown motor
Mass
5.7 kg wet, 5.7 kg dry
Launch date (UTC)
2024-08-16 (1 year ago)
Launch vehicle
FALCON 9
Launch site
Air Force Western Test Range (AFWTR)
Object type
Payload
Rocket body
Debris
Shape & HBR
Box + 2 Pan, 1.0 m
Radar Cross Section
0.072 m², Medium (>0.1 m² and < 1m²)

Expand to show TLE details & history
Last TLE update: 5 hours ago

TLE from 5 hours ago
0 FLOCK 4BE 8
1 60515U 24149AZ  26036.49308362  .00258636  00000-0  26102-2 0  9992
2 60515  97.3758 121.5342 0003341 287.1603  72.9290 15.64523066 82203
Epoch: 2026-02-05T11:50Z
TLE epoch observation values (Epoch: 2026-02-05T11:50:02.424Z)
Latitude
-0.00007°
Longitude
168.37959°
Altitude
377.1 km
Speed
7.684 km/s
True Right ascension
08h 06m 08s
True Declination
0° 00' 00"
Sunlit
Object was in full shadow at epoch
Visualization orbit readout
Latitude
Unknown
Longitude
Unknown
Altitude
Unknown
Speed
Unknown
Apparent Right ascension
Unknown
Apparent Declination
Unknown
Sunlit
N/A
Visualization observer readout
Local Sidereal Time
18:30:13
Azimuth
Unknown
Elevation
Unknown
Doppler factor
Unknown
Orbital elements
Apogee altitude
373.771 km
Perigee altitude
369.261 km
Semi-major axis
6,749.653 km
Eccentricity
0.00033
Inclination
97.3758°
RAAN
121.5342°
Arg. of periapsis
287.1603°
True anomaly
72.9656°
Mean anomaly
72.929°
Eccentric anomaly
72.9473°
Mean motion
3.914 °/min
Orbital period
91.98 mins
BSTAR
0.0026102
Loading maneuver chart data...
Computing Atmospheric mass density...
Loading historical data...
Loading historical data...
Loading historical data...
Loading historical data...
Loading historical data...
Loading historical data...
Loading historical data...

Documentation

Showing up to 5 results
|